Погода в Пашкани

Румыния     47°14′39″N   26°43′22″E
темп.,
°C
ветер,
м/с
пор.,
м/с
влажн.,
%
обл.,
%
осадки,
мм/ч
давл.,
гПа
погр.,
м
19 января, вт
вт1923:00−13зсз23879 0.0 102593
02:00−14з11874 0.0 102520
05:00−14юз11870 0.0 102520
08:00−14юз118516 0.0 102422
11:00−9ююз226818 0.0 1024219
14:00−6ю236622 0.0 1021315
17:00−8ю33869 0.0 102240
20:00−9ю238823 0.0 102242
20 января, ср
ср2023:00−8юз128187 0.0 102223
02:00−7юз117994 0.0 102122
05:00−7ююз128296 0.0 102021
08:00−6ю228398 0.0 102025
11:00−2ю2377100 0.0 1020156
14:00+1ююв227898 0.0 1018125
17:00−1ююв228796 0.0 101922
20:00−2ююз228680 0.0 102021
21 января, чт
чт2123:00−2юз22830 0.0 102022
02:00−2ююз228213 0.0 102022
05:00−2ююз238537 0.0 102022
08:00−2ююз228419 0.0 102022
11:00+3ююз25810 0.0 1019179
14:00+5ю23820 0.0 1018145
17:00+2ю33862 0.0 101826
20:00+2ююз238546 0.0 101825
22 января, пт
пт2223:00+1ююз238099 0.0 101825
02:00+1ююз237796 0.0 101724
05:00+1ююз2375100 0.0 101623
08:000ю2376100 0.0 101525
11:00+3ююв357199 0.0 1013125
14:00+5ююв347089 0.0 1011138
17:00+2ю348251 0.0 101034
20:00+2ю358429 0.0 101099
23 января, сб
сб2323:00+2ю358538 0.0 1009103
02:00+3ююз238369 0.0 100835
05:00+3ююз3379100 0.0 100832
08:00+3ю3481100 0.0 100940
11:00+7ююз227241 0.0 100889
14:00+8юв237335 0.0 1007166
17:00+3юв2388100 0.0 100624
20:00+2ююв2393100 0.0 100338